Retour au catalogue

DELTA 1 DEB

ActifSSO
NORAD 42577·DEBRIS·🇺🇸 United States

Lancé Nov 6, 1973 depuis Vandenberg Space Force Base

Loading…

Prochains Passages (prochaines 24 heures)

TLE

VieillissantSource: Space-Track

Époque: Sep 4, 2026, 23:54 UTC

1 42577U 73086HR  26247.99598590  .00000256  00000-0  14474-2 0  9999
2 42577 101.2354 167.6322 0079759  74.4147 286.5724 12.72297107 52452

Suivez DELTA 1 DEB en temps réel avec AllMySat

Download on the App Store